sat.trackr.live / text

‹ back to catalog

STARLINK-35053

NORAD 65609 · 2025-207T

PAYLOAD ACTIVE UNKNOWN

§ Identity

Operator
Country
US
Launch date
2025-09-13
Launch site
AFWTR
Launch vehicle
Mass (kg)
RCS (m²)

Purposes: comms

External: N2YO · Heavens-Above · Gunter

§ Orbital elements

Epoch: 2026-09-20T22:00:03.000096Z

Period
93.91 min
Inclination
97.2848°
Eccentricity
0.0002146
Mean motion
15.33431434 rev/d
Perigee alt
464.1 km
Apogee alt
467.1 km
Semi-major
6,843.7 km
B*
-1.4156e-4
RAAN
326.4242°
Arg perigee
96.1437°
Mean anomaly
154.3845°
Rev number
564

§ Raw data

STARLINK-350531 65609U 25207T   26263.91670139 -.00004641  00000+0 -14156-3 0  99932 65609  97.2848 326.4242 0002146  96.1437 154.3845 15.33431434  5648

JSON: /api/v1/satellites/65609 · /tle

For live sub-satellite position, see the globe view (requires WebGL).

§ Visibility from observer

Set your observer location to see the next 7 days of passes ≥ 10°. The values pass through the URL so the page stays shareable.

No JS? Fill the form by hand. The geolocation button needs JavaScript.